| time (UTC) | temp F | wind direction | speed MPH | gust MPH | rain 1hr in | rain 24hr in | rain mn in | humidity % | barometer mb |
| 20260901140818 | 76 | 181 | 0.0 | 0.0 | 0.00 | 0.01 | 0.00 | 92 | 1017.7 |
| 20260901135850 | 76 | 177 | 0.0 | 0.0 | 0.00 | 0.01 | 0.00 | 93 | 1017.7 |
| 20260901134813 | 75 | 169 | 0.0 | 0.0 | 0.00 | 0.01 | 0.00 | 94 | 1017.9 |
| 20260901133836 | 74 | 205 | 0.0 | 0.0 | 0.00 | 0.01 | 0.00 | 94 | 1017.8 |
| 20260901132850 | 74 | 209 | 0.0 | 0.0 | 0.00 | 0.01 | 0.00 | 94 | 1017.9 |
| 20260901131813 | 74 | 209 | 0.0 | 0.0 | 0.00 | 0.01 | 0.00 | 94 | 1017.8 |
| 20260901130829 | 73 | 209 | 0.0 | 0.0 | 0.00 | 0.01 | 0.00 | 94 | 1017.7 |
| 20260901125817 | 73 | 209 | 0.0 | 0.0 | 0.00 | 0.01 | 0.00 | 94 | 1017.9 |
| 20260901124901 | 73 | 209 | 0.0 | 0.0 | 0.00 | 0.01 | 0.00 | 94 | 1017.9 |
| 20260901123825 | 73 | 209 | 0.0 | 0.0 | 0.00 | 0.01 | 0.00 | 94 | 1018.0 |
| 20260901122818 | 73 | 209 | 0.0 | 0.0 | 0.00 | 0.01 | 0.00 | 95 | 1018.1 |
| 20260901121851 | 72 | 221 | 0.0 | 0.0 | 0.00 | 0.01 | 0.00 | 94 | 1018.1 |
| 20260901120822 | 72 | 221 | 0.0 | 0.0 | 0.00 | 0.01 | 0.00 | 95 | 1018.1 |
| 20260901115832 | 72 | 221 | 0.0 | 0.0 | 0.00 | 0.01 | 0.00 | 95 | 1018.1 |
| 20260901114826 | 72 | 221 | 0.0 | 0.0 | 0.00 | 0.01 | 0.00 | 95 | 1018.0 |
| 20260901113840 | 72 | 221 | 0.0 | 0.0 | 0.00 | 0.01 | 0.00 | 94 | 1018.0 |
| 20260901112816 | 72 | 221 | 0.0 | 0.0 | 0.00 | 0.01 | 0.00 | 94 | 1017.9 |
| 20260901111813 | 72 | 221 | 0.0 | 0.0 | 0.00 | 0.01 | 0.00 | 95 | 1017.8 |
| 20260901110823 | 72 | 221 | 0.0 | 0.0 | 0.00 | 0.01 | 0.00 | 95 | 1017.6 |
| 20260901105829 | 72 | 221 | 0.0 | 0.0 | 0.00 | 0.01 | 0.00 | 95 | 1017.8 |
| 20260901104822 | 72 | 221 | 0.0 | 0.0 | 0.00 | 0.01 | 0.00 | 95 | 1017.8 |
| 20260901103835 | 72 | 221 | 0.0 | 0.0 | 0.00 | 0.01 | 0.00 | 95 | 1017.8 |
| 20260901102823 | 72 | 221 | 0.0 | 0.0 | 0.00 | 0.01 | 0.00 | 94 | 1017.7 |
| 20260901101814 | 72 | 221 | 0.0 | 0.0 | 0.00 | 0.01 | 0.00 | 94 | 1017.7 |
| 20260901100827 | 72 | 221 | 0.0 | 0.0 | 0.00 | 0.01 | 0.00 | 95 | 1017.7 |
| 20260901095832 | 72 | 221 | 0.0 | 0.0 | 0.00 | 0.01 | 0.00 | 94 | 1017.8 |
| 20260901094823 | 72 | 221 | 0.0 | 0.0 | 0.00 | 0.01 | 0.00 | 94 | 1017.7 |
| 20260901093836 | 72 | 221 | 0.0 | 0.0 | 0.00 | 0.01 | 0.00 | 95 | 1017.6 |
| 20260901092819 | 72 | 221 | 0.0 | 0.0 | 0.00 | 0.01 | 0.00 | 95 | 1017.9 |
| 20260901091840 | 71 | 221 | 0.0 | 0.0 | 0.00 | 0.01 | 0.00 | 95 | 1017.8 |
| 20260901090824 | 71 | 221 | 0.0 | 0.0 | 0.00 | 0.01 | 0.00 | 94 | 1018.0 |
| 20260901085838 | 71 | 221 | 0.0 | 0.0 | 0.00 | 0.01 | 0.00 | 94 | 1018.0 |
| 20260901084820 | 71 | 221 | 0.0 | 0.0 | 0.00 | 0.01 | 0.00 | 94 | 1018.0 |
| 20260901083832 | 71 | 221 | 0.0 | 0.0 | 0.00 | 0.01 | 0.00 | 94 | 1018.1 |
| 20260901082823 | 71 | 221 | 0.0 | 0.0 | 0.00 | 0.01 | 0.00 | 94 | 1018.1 |
| 20260901081817 | 71 | 221 | 0.0 | 0.0 | 0.00 | 0.01 | 0.00 | 94 | 1018.1 |
| 20260901080830 | 71 | 221 | 0.0 | 0.0 | 0.00 | 0.01 | 0.00 | 94 | 1018.0 |
| 20260901075814 | 71 | 221 | 0.0 | 0.0 | 0.00 | 0.01 | 0.00 | 94 | 1017.9 |
| 20260901074829 | 71 | 221 | 0.0 | 0.0 | 0.00 | 0.01 | 0.00 | 94 | 1017.9 |
| 20260901073821 | 71 | 221 | 0.0 | 0.0 | 0.00 | 0.01 | 0.00 | 94 | 1017.9 |
| 20260901072832 | 71 | 221 | 0.0 | 0.0 | 0.00 | 0.01 | 0.00 | 94 | 1018.1 |
| 20260901071814 | 71 | 221 | 0.0 | 0.0 | 0.00 | 0.01 | 0.00 | 94 | 1018.0 |
| 20260901070827 | 71 | 221 | 0.0 | 0.0 | 0.00 | 0.01 | 0.00 | 94 | 1018.1 |
| 20260901065841 | 71 | 221 | 0.0 | 0.0 | 0.00 | 0.01 | 0.00 | 94 | 1018.2 |
| 20260901064824 | 71 | 221 | 0.0 | 0.0 | 0.00 | 0.01 | 0.00 | 94 | 1018.3 |
| 20260901063816 | 71 | 221 | 0.0 | 0.0 | 0.00 | 0.01 | 0.00 | 94 | 1018.4 |
| 20260901062853 | 71 | 221 | 0.0 | 0.0 | 0.00 | 0.01 | 0.00 | 93 | 1018.6 |
| 20260901061815 | 71 | 221 | 0.0 | 0.0 | 0.00 | 0.01 | 0.00 | 94 | 1018.6 |
| 20260901060827 | 71 | 221 | 0.0 | 0.0 | 0.00 | 0.01 | 0.00 | 94 | 1018.7 |
| 20260901055840 | 71 | 221 | 0.0 | 0.0 | 0.00 | 0.01 | 0.00 | 93 | 1018.8 |
| 20260901054822 | 71 | 221 | 0.0 | 0.0 | 0.00 | 0.01 | 0.00 | 93 | 1018.8 |
| 20260901053813 | 71 | 221 | 0.0 | 0.0 | 0.00 | 0.01 | 0.00 | 93 | 1019.0 |
| 20260901052826 | 71 | 221 | 0.0 | 0.0 | 0.00 | 0.01 | 0.00 | 93 | 1018.9 |
| 20260901051819 | 71 | 221 | 0.0 | 0.0 | 0.00 | 0.01 | 0.00 | 93 | 1018.9 |
| 20260901050830 | 71 | 221 | 0.0 | 0.0 | 0.00 | 0.01 | 0.00 | 93 | 1019.0 |
| 20260901045814 | 71 | 221 | 0.0 | 0.0 | 0.00 | 0.01 | 0.00 | 93 | 1019.1 |
| 20260901044847 | 71 | 221 | 0.0 | 0.0 | 0.00 | 0.01 | 0.00 | 93 | 1019.2 |
| 20260901043817 | 72 | 221 | 0.0 | 0.0 | 0.00 | 0.01 | 0.00 | 93 | 1019.3 |
| 20260901042829 | 72 | 221 | 0.0 | 0.0 | 0.00 | 0.01 | 0.00 | 93 | 1019.3 |
| 20260901041820 | 71 | 221 | 0.0 | 0.0 | 0.01 | 0.01 | 0.00 | 92 | 1019.3 |
| 20260901040832 | 71 | 221 | 0.0 | 0.0 | 0.01 | 0.01 | 0.00 | 92 | 1019.3 |
| 20260901035818 | 72 | 221 | 0.0 | 0.0 | 0.01 | 0.01 | 0.01 | 92 | 1019.3 |
| 20260901034831 | 72 | 221 | 0.0 | 0.0 | 0.01 | 0.01 | 0.01 | 92 | 1019.5 |
| 20260901033824 | 72 | 221 | 0.0 | 0.0 | 0.01 | 0.01 | 0.01 | 92 | 1019.6 |
| 20260901032836 | 72 | 221 | 0.0 | 0.0 | 0.01 | 0.01 | 0.01 | 91 | 1019.8 |
| 20260901031822 | 72 | 221 | 0.0 | 0.0 | 0.00 | 0.00 | 0.00 | 91 | 1019.9 |
| 20260901030816 | 72 | 221 | 0.0 | 0.0 | 0.00 | 0.00 | 0.00 | 91 | 1019.8 |
| 20260901025821 | 72 | 221 | 0.0 | 0.0 | 0.00 | 0.00 | 0.00 | 90 | 1019.9 |
| 20260901024815 | 72 | 221 | 0.0 | 0.0 | 0.00 | 0.00 | 0.00 | 90 | 1019.7 |
| 20260901023828 | 72 | 221 | 0.0 | 0.0 | 0.00 | 0.00 | 0.00 | 90 | 1019.6 |
| 20260901022838 | 72 | 221 | 0.0 | 0.0 | 0.00 | 0.00 | 0.00 | 90 | 1019.6 |
| 20260901021831 | 73 | 221 | 0.0 | 0.0 | 0.00 | 0.00 | 0.00 | 89 | 1019.8 |
| 20260901020831 | 73 | 221 | 0.0 | 0.0 | 0.00 | 0.00 | 0.00 | 89 | 1019.8 |
| 20260901015822 | 73 | 221 | 0.0 | 0.0 | 0.00 | 0.00 | 0.00 | 89 | 1019.6 |
| 20260901014817 | 73 | 221 | 0.0 | 0.0 | 0.00 | 0.00 | 0.00 | 89 | 1019.5 |
| 20260901013829 | 73 | 221 | 0.0 | 0.0 | 0.00 | 0.00 | 0.00 | 89 | 1019.5 |
| 20260901012814 | 74 | 221 | 0.0 | 0.0 | 0.00 | 0.00 | 0.00 | 88 | 1019.5 |
| 20260901011828 | 74 | 221 | 0.0 | 0.0 | 0.00 | 0.00 | 0.00 | 88 | 1019.4 |
| 20260901010823 | 74 | 221 | 0.0 | 0.0 | 0.00 | 0.00 | 0.00 | 88 | 1019.4 |
| 20260901005828 | 74 | 221 | 0.0 | 0.0 | 0.00 | 0.00 | 0.00 | 88 | 1019.5 |
| 20260901004821 | 74 | 221 | 0.0 | 0.0 | 0.00 | 0.00 | 0.00 | 88 | 1019.5 |
| 20260901003832 | 74 | 221 | 0.0 | 0.0 | 0.00 | 0.00 | 0.00 | 87 | 1019.4 |
| 20260901002847 | 75 | 221 | 0.0 | 0.0 | 0.00 | 0.00 | 0.00 | 87 | 1019.4 |
| 20260901001819 | 75 | 221 | 0.0 | 0.0 | 0.00 | 0.00 | 0.00 | 87 | 1019.3 |
| 20260901000832 | 75 | 221 | 0.0 | 0.0 | 0.00 | 0.00 | 0.00 | 87 | 1019.1 |
| 20260831235818 | 76 | 221 | 0.0 | 0.0 | 0.00 | 0.00 | 0.00 | 87 | 1019.1 |
| 20260831234831 | 76 | 221 | 0.0 | 0.0 | 0.00 | 0.00 | 0.00 | 86 | 1019.1 |
| 20260831233843 | 76 | 221 | 0.0 | 0.0 | 0.00 | 0.00 | 0.00 | 86 | 1019.0 |
| 20260831232835 | 76 | 221 | 0.0 | 0.0 | 0.00 | 0.00 | 0.00 | 86 | 1019.0 |
| 20260831231827 | 77 | 221 | 0.0 | 0.0 | 0.00 | 0.00 | 0.00 | 86 | 1019.0 |
| 20260831230818 | 77 | 221 | 0.0 | 0.0 | 0.00 | 0.00 | 0.00 | 86 | 1019.2 |
| 20260831225826 | 77 | 221 | 0.0 | 0.0 | 0.00 | 0.00 | 0.00 | 86 | 1019.4 |
| 20260831224821 | 77 | 221 | 0.0 | 0.0 | 0.00 | 0.00 | 0.00 | 85 | 1019.5 |
| 20260831223827 | 78 | 221 | 0.0 | 0.0 | 0.00 | 0.00 | 0.00 | 85 | 1019.6 |
| 20260831222821 | 78 | 221 | 0.0 | 0.0 | 0.00 | 0.00 | 0.00 | 84 | 1019.7 |
| 20260831221837 | 79 | 221 | 0.0 | 0.0 | 0.00 | 0.00 | 0.00 | 84 | 1019.9 |
| 20260831220829 | 79 | 221 | 0.0 | 0.0 | 0.00 | 0.00 | 0.00 | 84 | 1019.8 |
| 20260831215816 | 79 | 221 | 0.0 | 0.0 | 0.00 | 0.00 | 0.00 | 84 | 1019.8 |
| 20260831214831 | 80 | 221 | 0.0 | 0.0 | 0.00 | 0.00 | 0.00 | 83 | 1019.7 |
| 20260831213828 | 80 | 221 | 0.0 | 0.0 | 0.00 | 0.00 | 0.00 | 83 | 1019.8 |
| 20260831212816 | 80 | 221 | 0.0 | 0.0 | 0.00 | 0.00 | 0.00 | 81 | 1019.8 |
| 20260831211814 | 81 | 221 | 0.0 | 0.0 | 0.00 | 0.00 | 0.00 | 82 | 1019.9 |
| 20260831210848 | 81 | 221 | 0.0 | 0.0 | 0.00 | 0.00 | 0.00 | 82 | 1020.1 |
| 20260831205816 | 81 | 221 | 0.0 | 0.0 | 0.00 | 0.00 | 0.00 | 82 | 1020.1 |
| 20260831204831 | 81 | 221 | 0.0 | 0.0 | 0.00 | 0.00 | 0.00 | 81 | 1020.1 |
| 20260831203825 | 81 | 221 | 0.0 | 0.0 | 0.00 | 0.00 | 0.00 | 80 | 1020.0 |
| 20260831202841 | 82 | 221 | 0.0 | 0.0 | 0.00 | 0.00 | 0.00 | 78 | 1019.9 |
| 20260831201815 | 82 | 221 | 0.0 | 0.0 | 0.00 | 0.00 | 0.00 | 77 | 1019.9 |
| 20260831200830 | 82 | 223 | 0.0 | 0.0 | 0.00 | 0.00 | 0.00 | 78 | 1020.1 |
| 20260831195817 | 82 | 223 | 0.0 | 0.0 | 0.00 | 0.00 | 0.00 | 77 | 1020.3 |
| 20260831194831 | 82 | 254 | 0.0 | 0.0 | 0.00 | 0.00 | 0.00 | 77 | 1020.3 |
| 20260831193829 | 82 | 254 | 0.0 | 0.0 | 0.00 | 0.00 | 0.00 | 77 | 1020.4 |
| 20260831192818 | 82 | 254 | 0.0 | 0.0 | 0.00 | 0.00 | 0.00 | 78 | 1020.4 |
| 20260831191842 | 82 | 254 | 0.0 | 0.0 | 0.00 | 0.00 | 0.00 | 76 | 1020.5 |
| 20260831190827 | 82 | 236 | 0.0 | 0.0 | 0.00 | 0.00 | 0.00 | 79 | 1020.5 |
| 20260831185814 | 81 | 236 | 0.0 | 0.0 | 0.00 | 0.00 | 0.00 | 77 | 1020.7 |
| 20260831184831 | 81 | 236 | 0.0 | 0.0 | 0.00 | 0.00 | 0.00 | 77 | 1020.7 |
| 20260831183850 | 81 | 236 | 0.0 | 0.0 | 0.00 | 0.00 | 0.00 | 79 | 1020.8 |
| 20260831182823 | 82 | 236 | 0.0 | 0.0 | 0.00 | 0.00 | 0.00 | 78 | 1020.7 |
| 20260831181820 | 82 | 236 | 0.0 | 0.0 | 0.00 | 0.00 | 0.00 | 77 | 1020.8 |
| 20260831180832 | 81 | 227 | 0.0 | 0.0 | 0.00 | 0.00 | 0.00 | 80 | 1020.7 |
| 20260831175823 | 80 | 190 | 0.0 | 0.0 | 0.00 | 0.11 | 0.00 | 80 | 1020.9 |
| 20260831174840 | 80 | 190 | 0.0 | 0.0 | 0.00 | 0.11 | 0.00 | 79 | 1020.9 |
| 20260831173836 | 80 | 190 | 0.0 | 0.0 | 0.00 | 0.11 | 0.00 | 78 | 1020.9 |
| 20260831172833 | 80 | 166 | 0.0 | 0.0 | 0.00 | 0.11 | 0.00 | 80 | 1021.0 |
| 20260831171816 | 79 | 165 | 0.0 | 0.0 | 0.00 | 0.11 | 0.00 | 80 | 1021.1 |
| 20260831170830 | 79 | 165 | 0.0 | 0.0 | 0.00 | 0.11 | 0.00 | 79 | 1021.1 |
| 20260831165848 | 78 | 155 | 0.0 | 0.0 | 0.00 | 0.11 | 0.00 | 80 | 1021.1 |
| 20260831164814 | 78 | 159 | 0.0 | 0.0 | 0.00 | 0.11 | 0.00 | 79 | 1021.1 |
| 20260831163829 | 78 | 159 | 0.0 | 0.0 | 0.00 | 0.11 | 0.00 | 81 | 1021.3 |
| 20260831162820 | 77 | 159 | 0.0 | 0.0 | 0.00 | 0.11 | 0.00 | 82 | 1021.4 |
| 20260831161816 | 77 | 54 | 0.0 | 2.0 | 0.00 | 0.11 | 0.00 | 82 | 1021.6 |
| 20260831160831 | 76 | 52 | 1.0 | 5.0 | 0.00 | 0.11 | 0.00 | 81 | 1021.6 |
| 20260831155819 | 76 | 176 | 0.0 | 5.0 | 0.00 | 0.11 | 0.00 | 82 | 1021.4 |
| 20260831154835 | 76 | 71 | 0.0 | 0.0 | 0.00 | 0.11 | 0.00 | 83 | 1021.4 |
| 20260831153830 | 76 | 71 | 0.0 | 0.0 | 0.00 | 0.11 | 0.00 | 82 | 1021.5 |
| 20260831152827 | 76 | 71 | 0.0 | 0.0 | 0.00 | 0.11 | 0.00 | 84 | 1021.5 |
| 20260831151840 | 75 | 38 | 0.0 | 3.0 | 0.00 | 0.11 | 0.00 | 84 | 1021.6 |
| 20260831150852 | 75 | 13 | 0.0 | 4.0 | 0.00 | 0.11 | 0.00 | 85 | 1021.5 |
| 20260831145818 | 74 | 130 | 0.0 | 0.0 | 0.00 | 0.11 | 0.00 | 88 | 1021.6 |
| 20260831144831 | 73 | 150 | 0.0 | 2.0 | 0.00 | 0.11 | 0.00 | 88 | 1021.6 |
| 20260831143846 | 73 | 150 | 1.0 | 6.0 | 0.00 | 0.11 | 0.00 | 88 | 1021.7 |
| 20260831142821 | 72 | 313 | 2.0 | 5.0 | 0.00 | 0.11 | 0.00 | 89 | 1021.8 |
| 20260831141815 | 72 | 36 | 1.0 | 5.0 | 0.00 | 0.11 | 0.00 | 90 | 1021.8 |